FW4373 Weather Reports


time (UTC)temp
F
wind
direction
speed
knots
gust
knots
rain 1hr
in
rain 24hr
in
rain mn
in
humidity
%
barometer
mb
20260505153028 59 0 0.9 7.0 0.00 0.00 0.00 67 1012.6
20260505151535 59 0 0.9 5.2 0.00 0.00 0.00 68 1012.6
20260505124528 57 61 0.0 4.3 0.00 0.00 0.00 67 1013.3
20260505123026 58 0 1.7 5.2 0.00 0.00 0.00 66 1013.3
20260505121526 58 0 0.0 7.0 0.00 0.00 0.00 65 1013.3
20260505120029 59 66 2.6 7.0 0.00 0.00 0.00 66 1013.3
20260505114528 57 102 1.7 11.3 0.00 0.00 0.00 71 1013.4
20260505113039 57 0 1.7 8.7 0.00 0.00 0.00 71 1013.3
20260505111540 56 0 0.9 6.1 0.00 0.00 0.00 74 1013.5
20260505091526 54 73 0.9 6.1 0.00 0.00 0.00 79 1014.0
20260505090032 53 36 2.6 8.7 0.00 0.00 0.00 80 1013.8
20260505084530 53 64 1.7 7.0 0.00 0.00 0.00 80 1014.1
20260505083026 53 0 0.0 4.3 0.00 0.00 0.00 81 1014.1
20260505081530 53 69 2.6 7.8 0.00 0.00 0.00 82 1014.1
20260505080030 53 319 1.7 7.8 0.00 0.00 0.00 82 1014.1
20260505074526 52 0 1.7 6.1 0.00 0.00 0.00 85 1014.1
20260505073030 51 0 0.9 7.0 0.00 0.00 0.00 86 1014.1
20260505071529 51 69 0.9 6.1 0.00 0.00 0.00 86 1014.3
20260505070027 51 33 0.0 4.3 0.00 0.00 0.00 87 1014.3
20260505064527 51 34 0.9 7.0 0.00 0.00 0.00 87 1014.3
20260505063025 50 0 0.0 4.3 0.00 0.00 0.00 89 1014.2
20260505061529 50 0 0.0 2.6 0.00 0.00 0.00 90 1014.1
20260505060026 49 0 0.0 2.6 0.00 0.00 0.00 91 1014.1
20260505054541 49 0 0.0 0.9 0.00 0.00 0.00 91 1014.1
20260505053027 48 0 0.0 2.6 0.00 0.00 0.00 91 1014.1
20260505051528 48 0 0.0 2.6 0.00 0.00 0.00 91 1014.3
20260505041525 48 0 0.0 0.0 0.00 0.00 0.00 90 1014.4
20260505040038 49 0 0.0 2.6 0.00 0.00 0.00 90 1014.4
20260505034536 49 0 0.0 0.0 0.00 0.00 0.00 90 1014.4
20260505033026 49 0 0.0 0.0 0.00 0.00 0.00 90 1014.5
20260505031527 50 0 0.0 0.0 0.00 0.00 0.00 90 1014.5
20260505030028 50 0 0.0 0.0 0.00 0.00 0.00 90 1014.3
20260505024528 50 0 0.0 0.0 0.00 0.00 0.00 90 1014.5
20260505023028 50 0 0.0 0.0 0.00 0.00 0.00 89 1014.4
20260505021529 50 0 0.0 0.0 0.00 0.00 0.00 90 1014.5
20260505020037 50 0 0.0 0.0 0.00 0.00 0.00 89 1014.6
20260505014525 50 0 0.0 0.0 0.00 0.00 0.00 88 1014.5
20260505013027 51 0 0.0 0.0 0.00 0.00 0.00 87 1014.7
20260505011528 52 0 0.0 0.0 0.00 0.00 0.00 86 1014.9
20260505010028 53 0 0.0 1.7 0.00 0.00 0.00 85 1015.0
20260505004528 53 0 0.0 0.9 0.00 0.00 0.00 85 1015.1
20260505003027 53 0 0.0 0.9 0.00 0.00 0.00 85 1015.2
20260505001528 53 0 0.0 2.6 0.00 0.00 0.00 85 1015.3
20260505000042 53 0 0.0 4.3 0.00 0.00 0.00 84 1015.3
20260504234528 54 0 0.0 4.3 0.00 0.00 0.00 84 1015.4
20260504233026 54 0 0.0 4.3 0.00 0.00 0.00 83 1015.4
20260504231525 54 0 0.0 0.0 0.00 0.00 0.00 84 1015.3
20260504230028 54 0 0.0 1.7 0.00 0.00 0.00 83 1015.4
20260504224528 54 0 0.0 3.5 0.00 0.00 0.00 83 1015.4
20260504223028 54 0 0.0 4.3 0.00 0.00 0.00 82 1015.4
20260504221528 55 0 0.0 0.9 0.00 0.00 0.00 82 1015.5
20260504220042 55 0 0.0 3.5 0.00 0.00 0.00 82 1015.6
20260504214528 55 50 0.0 3.5 0.00 0.00 0.00 82 1015.6
20260504213031 55 0 0.0 3.5 0.00 0.00 0.00 82 1015.6
20260504211537 55 0 0.0 4.3 0.00 0.00 0.00 82 1015.6
20260504210026 56 0 0.0 4.3 0.00 0.00 0.00 82 1015.6
20260504204536 56 0 0.0 3.5 0.00 0.00 0.00 82 1015.6
20260504203028 56 0 0.0 3.5 0.00 0.00 0.00 82 1015.6
20260504201528 56 0 0.0 1.7 0.00 0.00 0.00 82 1015.4
20260504200025 56 0 0.0 2.6 0.00 0.00 0.00 81 1015.4
20260504194528 57 0 0.0 3.5 0.00 0.00 0.00 81 1015.3
20260504193030 57 0 0.0 4.3 0.00 0.00 0.00 80 1015.2
20260504191529 57 0 0.0 4.3 0.00 0.00 0.00 80 1015.1
20260504190030 57 0 0.9 4.3 0.00 0.00 0.00 79 1015.1
20260504184527 57 67 0.0 4.3 0.00 0.00 0.00 79 1015.1
20260504183030 57 0 0.0 2.6 0.00 0.00 0.00 79 1015.0
20260504181531 57 0 0.0 6.1 0.00 0.00 0.00 79 1014.8
20260504180028 58 22 0.0 5.2 0.00 0.00 0.00 79 1014.9
20260504174526 58 81 0.0 4.3 0.00 0.00 0.00 78 1014.7
20260504173030 58 0 0.9 7.8 0.00 0.00 0.00 77 1014.7
20260504171528 59 0 0.0 6.1 0.00 0.00 0.00 77 1014.7